Kezdőlap
METAR-TAF:

METAR-TAF

Repülőterek :

Shenandoah Municipal Airport

Shenandoah, Iowa, Amerikai Egyesült Államok

földrajzi szélesség: 40-45N, földrajzi hosszúság: 095-25W, magasság: 296 m

Jelenlegi meteorológiai megfigyelések

A jelentés 26 perccel ezelõtt készült, 13:55 UTC
Észak-északnyugati szél 3 kt
Hőmérséklet 4°C
Páratartalom 70%
Légköri nyomás 1011 hPa
Látótávolság: 16.1 km
Borult 8500 lábon

METAR: KSDA 221355Z AUTO 33003KT 10SM OVC085 04/M01 A2985 RMK AO2

Idő: 08:21 (14:21 UTC)


TAF: hiányzik

Meteorológiai megfigyelések és előrejelzések több, mint 4000 repülőtéren (METAR és TAF jelentéseket).

A térképen piros és sárga pontok jelzik az elérhető meteorológiai állomásokat.

Mozgassa az egeret a pont fölött, hogy megjelenjen az állomás neve.

Azután kattintson az időjárási megfigyelések és előrejelzések megtekintéséhez.

A térkép megváltoztatása: kattintson a fekete keresztel jelölt zöld gombra ráközelítéshez, a vonallal jelölt zöld gombra távolításhoz, vagy a zöld nyilakra a szomszédos térképek eléréséhez.


METAR-TAF: